Wind_Speed
19 18 17 18 19 19 20 20 19 19 18 17 13 12 11 9 10 8 3 6 4 5 5 3 1 1 2 1 2 1 4 3 3 3 5 3 1 1 2 5 3 4 5 3 6
19 20 20 20 19 19 19 21 21 20 20 19 18 15 12 11 9 9 7 7 5 5 3 1 3 2 1 0 1 3 2 3 3 4 3 2 1 2 3 4 5 4 3 4 5
19 20 21 22 22 21 21 21 22 22 22 21 19 18 14 11 9 6 6 6 5 5 3 0 3 2 2 0 2 2 2 6 4 3 1 0 4 2 4 4 1 3 5 7 10
21 22 22 20 21 22 22 21 21 21 22 21 19 17 14 8 5 5 6 6 5 4 2 2 2 4 2 2 1 4 3 2 4 2 1 2 4 4 8 5 2 5 8 10 10
20 19 21 23 21 21 21 21 22 22 23 20 18 15 13 5 7 11 7 7 6 4 2 2 3 2 2 4 2 4 4 3 2 1 3 5 5 7 11 9 7 6 10 10 9
23 23 22 22 22 22 21 22 23 22 22 21 17 13 7 8 10 10 7 6 6 4 2 2 1 3 5 2 2 3 3 2 1 1 3 4 7 4 4 7 4 10 9 5 4
21 21 23 22 22 23 21 21 22 21 22 20 16 10 8 8 10 8 6 5 5 3 1 4 6 2 3 4 3 3 4 3 6 1 2 7 5 8 5 5 8 9 5 3 2
20 22 24 23 24 22 20 21 22 22 21 18 13 7 6 9 9 7 5 5 4 3 0 4 7 5 2 6 3 3 3 4 6 2 3 4 5 6 7 5 12 7 5 5 3
20 22 24 24 23 20 20 20 22 21 17 13 9 3 4 5 3 6 5 3 4 4 2 1 5 3 4 3 1 6 5 7 5 1 3 5 5 4 7 12 11 6 7 5 2
19 20 21 20 19 18 18 19 16 12 9 7 5 5 5 2 5 5 4 4 2 3 3 3 3 4 4 5 4 6 7 3 5 4 5 9 14 8 12 14 9 6 7 3 3
19 19 19 19 15 12 18 15 9 3 5 7 9 7 5 5 4 3 4 2 2 4 5 3 4 8 12 9 4 3 4 5 2 2 5 5 15 13 10 4 6 7 6 3 2
19 19 18 17 8 8 11 6 6 8 11 10 11 10 10 6 5 3 3 3 4 7 3 4 9 6 7 6 5 4 4 6 2 1 4 8 18 13 3 4 4 6 4 1 1
18 18 17 13 4 5 6 8 11 12 7 4 3 2 2 2 4 3 1 1 5 7 9 11 4 6 7 7 7 6 7 2 2 5 3 9 10 6 4 5 4 3 2 0 2
16 16 14 5 3 3 2 10 13 11 4 5 1 1 2 2 3 3 1 1 2 5 5 8 6 8 6 7 7 5 3 2 2 4 2 3 4 8 8 7 6 9 5 4 5
15 13 11 3 1 2 3 7 11 4 6 2 2 1 1 2 4 1 2 2 4 3 3 2 7 9 8 4 8 2 4 2 2 0 2 6 3 5 8 10 8 8 6 8 9
12 11 6 4 1 3 2 6 6 2 5 3 2 2 3 2 1 1 2 1 1 2 4 3 2 4 2 4 1 10 5 4 3 3 3 5 4 4 9 10 8 5 2 9 19
10 7 4 2 3 3 2 2 2 4 3 3 3 2 4 2 3 3 3 5 3 3 7 4 5 2 5 6 4 6 4 2 3 2 1 5 4 8 8 6 5 5 10 18 21
4 1 3 5 4 6 2 3 5 1 4 2 3 6 4 1 2 2 3 4 7 5 4 6 4 9 8 5 3 11 3 3 4 3 1 4 6 3 12 8 9 6 17 19 21
2 1 1 4 5 9 4 3 3 2 3 6 7 5 2 1 4 3 5 4 0 9 4 3 2 2 2 1 3 5 5 2 2 1 2 5 4 6 8 7 8 15 19 19 21
1 1 2 3 8 9 4 4 2 1 5 3 5 1 4 3 5 3 0 3 3 2 2 2 1 2 3 2 2 3 4 2 3 2 5 5 9 4 12 6 8 19 21 22 25
3 2 2 4 11 5 4 5 2 2 3 3 4 6 3 5 4 4 2 3 6 2 5 3 3 5 3 8 7 3 4 2 2 2 3 5 3 4 7 3 14 19 23 24 24
3 2 1 8 4 4 4 3 3 4 4 4 6 11 11 10 9 5 3 2 7 3 2 2 3 4 7 3 4 7 8 10 4 4 4 4 5 9 4 3 19 23 24 25 22
3 2 3 8 3 6 3 4 4 3 5 2 4 1 1 6 6 9 5 2 7 3 2 3 3 3 3 4 3 5 8 8 9 7 12 7 2 5 6 14 22 23 22 23 23
4 2 2 3 2 4 2 4 4 5 5 4 3 8 2 3 7 5 4 1 4 4 6 3 4 8 8 3 5 4 7 9 13 7 11 14 18 16 16 19 19 21 22 24 23
4 3 2 3 3 4 5 1 4 4 5 3 3 7 8 4 7 10 9 6 4 4 4 3 6 10 12 13 10 12 12 11 15 17 15 17 22 22 19 14 12 19 19 23 25
5 4 4 2 4 7 6 6 8 1 1 3 5 2 4 3 2 3 5 2 3 2 3 2 7 5 6 13 15 17 17 19 22 23 24 23 25 20 5 8 12 18 17 24 25
4 6 2 3 5 4 3 4 2 2 4 0 3 3 8 1 5 6 6 10 10 4 4 3 3 3 10 7 8 12 18 22 22 21 18 18 15 7 4 10 15 16 18 25 24
Wind_Direction
14 12 9 6 1 358 354 349 347 343 339 334 330 328 328 330 319 299 297 308 324 345 347 41 43 183 71 53 51 282 230 163 119 167 116 135 261 114 283 283 283 263 273 310 290
3 0 0 357 356 354 353 349 343 340 337 334 328 323 324 329 322 275 279 302 313 341 344 73 244 201 221 176 333 272 254 97 56 79 111 145 286 347 296 223 262 261 263 274 294
351 349 346 346 347 349 349 348 347 342 336 331 327 321 319 327 317 231 253 295 315 331 326 323 190 227 186 120 13 3 72 127 105 92 48 94 253 201 258 240 197 302 304 297 293
336 335 335 335 333 339 342 342 340 341 338 330 325 319 315 316 311 291 282 295 312 323 330 334 241 240 208 174 51 144 96 86 132 107 307 293 315 255 237 249 281 292 298 301 299
320 323 325 327 325 327 331 333 334 335 336 330 322 317 313 302 271 284 293 313 320 319 339 227 254 247 189 115 119 101 137 126 120 277 287 298 273 284 262 246 256 283 297 296 294
315 317 318 313 315 317 325 333 325 328 326 330 325 316 295 256 271 279 286 313 324 338 4 176 164 95 108 84 338 93 128 134 180 314 297 292 298 312 200 193 232 299 292 274 261
314 313 314 313 313 315 319 323 319 317 317 319 321 314 283 262 273 277 286 302 319 338 343 122 132 20 124 123 113 116 159 155 202 272 308 311 241 226 178 198 297 302 279 221 241
311 311 312 315 315 315 315 315 319 315 307 310 311 311 267 268 272 269 280 293 310 311 312 128 118 107 66 121 142 212 236 212 140 275 148 327 114 172 178 255 302 283 215 192 236
316 317 317 318 317 314 316 318 319 310 302 295 299 269 247 275 251 254 261 283 299 307 313 148 124 129 138 202 199 208 239 218 161 149 311 230 312 107 234 263 294 260 188 187 181
323 324 324 320 317 321 326 331 325 319 322 308 285 265 257 246 247 220 234 278 303 301 296 256 166 198 211 198 222 218 229 212 252 119 260 270 268 279 292 283 260 223 184 180 161
323 324 326 329 323 338 347 6 354 319 328 281 276 283 323 311 275 252 218 256 269 242 245 222 218 211 211 218 284 292 267 255 177 50 302 273 294 300 311 231 208 196 181 178 154
316 320 324 327 323 346 9 32 14 319 307 286 280 276 272 280 293 264 245 218 209 239 181 225 246 214 114 151 181 205 238 248 142 150 301 309 296 301 182 150 173 169 156 131 233
313 316 325 328 336 3 16 3 348 344 273 285 316 325 320 264 281 280 179 309 256 238 220 237 28 143 176 165 180 214 245 269 297 312 228 299 267 162 153 160 159 178 200 66 340
309 313 323 355 20 34 7 352 346 344 295 284 40 30 352 307 247 277 248 140 238 273 228 241 133 193 204 197 198 214 134 130 306 339 294 5 288 199 159 141 145 135 129 50 20
307 317 329 331 211 25 307 340 340 12 319 310 59 320 329 286 338 161 255 170 253 242 241 180 183 195 206 228 193 103 131 93 35 60 340 181 215 131 163 165 144 131 90 47 357
310 308 318 354 351 252 309 328 335 254 253 360 3 3 281 218 230 302 260 241 121 233 241 4 338 227 302 125 226 137 143 125 136 152 233 170 229 232 169 192 139 126 66 358 337
310 297 280 239 218 200 157 343 249 230 77 5 351 348 320 291 240 226 217 202 193 155 214 179 183 160 205 153 173 211 198 211 217 200 295 145 225 258 113 84 86 46 358 332 328
328 276 262 220 209 163 139 232 232 216 281 11 305 297 271 316 193 242 243 251 219 230 267 187 213 188 180 251 230 199 262 261 250 229 69 163 239 95 100 98 79 22 341 336 334
357 343 235 247 178 170 192 199 247 330 10 329 308 273 211 211 269 247 233 279 314 210 247 204 173 127 184 284 321 161 213 30 300 117 255 227 235 203 199 146 47 357 348 339 335
94 164 249 203 166 165 215 234 224 342 333 309 294 310 307 9 278 257 296 34 340 285 234 51 189 214 134 191 109 287 114 159 187 264 252 232 233 235 158 168 348 351 347 338 336
169 208 284 156 168 210 214 220 273 330 309 279 296 282 296 314 305 309 1 61 356 346 229 307 264 137 177 210 199 167 201 218 344 235 271 298 294 119 151 95 346 341 338 336 335
174 222 174 161 204 218 215 239 332 296 295 292 265 268 274 288 288 284 275 14 349 317 261 47 320 208 209 71 332 280 249 210 230 173 229 285 267 167 149 253 350 337 329 331 332
190 147 181 186 225 212 171 249 276 274 296 270 282 298 335 270 272 249 249 87 11 351 10 7 216 233 213 193 178 239 226 246 263 275 247 242 261 140 190 328 340 326 325 329 329
164 187 235 215 278 302 210 242 250 215 251 243 272 293 276 303 283 282 224 51 3 357 324 303 246 258 264 12 336 224 246 234 231 239 249 241 264 273 303 329 330 320 323 323 325
163 191 234 185 213 184 215 179 251 243 213 217 238 246 267 251 263 246 264 270 218 331 283 275 252 247 260 278 264 264 264 247 239 245 259 276 284 289 306 327 323 315 329 327 323
163 169 192 209 183 227 206 210 237 237 252 206 240 284 251 253 343 13 355 260 284 257 270 234 255 276 260 261 259 260 260 261 260 263 267 275 279 290 325 323 327 327 333 331 325
185 185 210 163 206 200 222 258 216 226 149 331 337 312 267 23 338 312 294 280 276 280 270 260 241 218 264 279 299 270 244 250 258 259 265 265 284 37 343 328 333 329 335 330 323
Height
1535 1533 1530 1529 1528 1525 1523 1520 1518 1516 1513 1510 1507 1504 1502 1500 1500 1499 1496 1497 1493 1491 1490 1487 1490 1490 1489 1490 1488 1487 1481 1481 1486 1487 1493 1497 1496 1497 1498 1498 1499 1499 1500 1501 1501
1535 1533 1532 1530 1527 1525 1523 1521 1519 1516 1513 1511 1509 1506 1502 1499 1498 1497 1497 1495 1493 1491 1490 1489 1492 1490 1490 1490 1489 1486 1477 1484 1488 1491 1492 1496 1497 1497 1498 1495 1495 1498 1499 1499 1500
1536 1535 1532 1531 1528 1525 1523 1520 1519 1517 1514 1511 1509 1506 1503 1500 1500 1497 1494 1494 1493 1491 1490 1489 1489 1490 1489 1489 1489 1487 1482 1488 1492 1495 1496 1496 1496 1497 1496 1492 1494 1496 1497 1498 1498
1537 1535 1533 1530 1527 1524 1522 1519 1515 1513 1511 1509 1507 1505 1504 1503 1502 1497 1495 1493 1492 1491 1490 1490 1490 1490 1487 1486 1489 1489 1491 1491 1494 1496 1497 1495 1497 1495 1494 1493 1495 1496 1496 1496 1496
1534 1532 1530 1527 1524 1523 1520 1518 1515 1513 1510 1507 1504 1503 1504 1503 1500 1496 1495 1494 1492 1490 1488 1490 1491 1490 1485 1488 1490 1487 1492 1494 1496 1497 1497 1497 1495 1495 1492 1493 1494 1495 1494 1494 1493
1532 1530 1527 1524 1522 1520 1519 1518 1513 1511 1507 1503 1503 1502 1500 1502 1497 1495 1494 1494 1493 1491 1488 1488 1490 1491 1490 1491 1491 1494 1494 1495 1497 1497 1497 1496 1493 1495 1488 1491 1493 1493 1492 1492 1492
1528 1525 1522 1521 1520 1517 1515 1513 1508 1506 1503 1502 1501 1499 1499 1498 1493 1494 1493 1493 1493 1492 1490 1488 1489 1492 1492 1492 1495 1495 1494 1495 1497 1497 1496 1497 1489 1490 1489 1491 1491 1489 1490 1491 1491
1526 1524 1521 1519 1517 1513 1511 1509 1507 1503 1501 1500 1499 1498 1496 1493 1492 1493 1493 1493 1493 1492 1492 1489 1488 1491 1493 1495 1496 1493 1493 1488 1493 1496 1495 1497 1478 1483 1488 1490 1488 1487 1488 1489 1490
1524 1521 1519 1517 1514 1512 1508 1505 1504 1500 1498 1498 1497 1497 1494 1490 1491 1490 1492 1492 1492 1492 1492 1491 1489 1492 1494 1491 1493 1489 1486 1483 1490 1496 1496 1494 1481 1483 1485 1485 1484 1484 1486 1487 1489
1523 1520 1517 1514 1511 1510 1507 1503 1499 1498 1496 1495 1496 1499 1493 1492 1489 1488 1490 1493 1493 1493 1494 1494 1490 1488 1488 1489 1493 1484 1483 1486 1484 1493 1493 1489 1483 1479 1480 1478 1479 1481 1483 1485 1487
1521 1518 1516 1514 1511 1509 1508 1503 1504 1499 1497 1497 1496 1496 1494 1492 1491 1490 1488 1491 1493 1494 1490 1493 1488 1486 1478 1480 1482 1483 1482 1483 1483 1495 1495 1483 1479 1475 1474 1476 1478 1479 1481 1484 1486
1518 1516 1514 1511 1509 1510 1508 1509 1509 1510 1501 1494 1493 1493 1494 1494 1494 1492 1491 1492 1492 1489 1489 1491 1484 1476 1482 1485 1486 1486 1487 1485 1488 1496 1496 1484 1478 1471 1473 1474 1475 1476 1479 1483 1484
1516 1515 1513 1509 1508 1508 1508 1509 1507 1505 1504 1495 1493 1493 1495 1496 1494 1493 1492 1492 1490 1486 1486 1482 1484 1487 1485 1486 1486 1486 1485 1483 1492 1492 1492 1491 1468 1472 1475 1476 1478 1479 1481 1482 1483
1515 1513 1511 1510 1512 1509 1510 1509 1509 1506 1502 1499 1493 1494 1495 1494 1494 1494 1491 1492 1492 1488 1485 1481 1485 1488 1487 1486 1485 1489 1488 1491 1494 1494 1491 1493 1484 1461 1470 1473 1475 1479 1481 1482 1484
1513 1513 1511 1508 1509 1510 1511 1509 1508 1507 1501 1496 1493 1493 1493 1495 1496 1494 1493 1490 1488 1487 1491 1484 1487 1489 1488 1485 1485 1485 1491 1494 1497 1501 1507 1490 1496 1458 1471 1473 1476 1477 1481 1483 1484
1510 1510 1511 1510 1510 1509 1509 1510 1509 1506 1497 1498 1495 1492 1493 1492 1493 1494 1495 1493 1490 1490 1490 1487 1491 1489 1484 1490 1490 1493 1493 1496 1504 1503 1498 1479 1482 1460 1465 1465 1475 1478 1480 1482 1482
1508 1508 1510 1509 1509 1508 1507 1510 1509 1503 1490 1493 1493 1492 1492 1490 1491 1491 1491 1491 1484 1489 1488 1489 1488 1490 1491 1489 1493 1493 1488 1492 1494 1498 1477 1486 1489 1462 1465 1469 1475 1479 1481 1482 1479
1506 1507 1508 1509 1507 1508 1508 1510 1507 1491 1490 1493 1491 1490 1488 1489 1488 1489 1487 1483 1484 1485 1482 1485 1490 1488 1488 1484 1480 1486 1483 1485 1486 1477 1470 1489 1481 1462 1466 1475 1478 1480 1480 1478 1476
1507 1507 1509 1508 1506 1508 1510 1506 1496 1493 1496 1494 1489 1487 1485 1487 1490 1487 1482 1480 1481 1484 1481 1477 1484 1489 1489 1487 1487 1488 1491 1487 1489 1483 1489 1467 1467 1466 1468 1475 1476 1477 1476 1475 1473
1509 1508 1508 1506 1508 1507 1507 1500 1494 1498 1498 1496 1494 1490 1487 1486 1489 1484 1479 1484 1482 1485 1484 1474 1481 1487 1490 1490 1490 1488 1486 1489 1487 1493 1482 1458 1461 1464 1469 1470 1473 1472 1472 1471 1468
1506 1506 1507 1506 1507 1510 1503 1499 1497 1495 1498 1495 1492 1491 1488 1488 1487 1485 1482 1486 1487 1485 1486 1480 1475 1488 1489 1485 1478 1489 1485 1487 1486 1486 1486 1472 1457 1457 1462 1470 1469 1471 1470 1468 1466
1506 1506 1506 1507 1511 1506 1505 1506 1504 1498 1498 1497 1494 1493 1493 1492 1490 1487 1483 1486 1490 1488 1482 1482 1477 1477 1479 1482 1484 1478 1477 1478 1484 1485 1487 1489 1470 1460 1465 1466 1467 1468 1469 1466 1464
1505 1505 1506 1506 1502 1501 1503 1504 1503 1500 1498 1498 1494 1493 1490 1492 1493 1486 1485 1490 1491 1489 1487 1485 1479 1480 1479 1484 1485 1484 1480 1480 1477 1479 1481 1481 1461 1460 1462 1461 1466 1468 1467 1464 1461
1505 1507 1507 1507 1505 1502 1502 1499 1502 1502 1501 1499 1499 1499 1496 1495 1492 1488 1489 1492 1492 1492 1492 1489 1481 1477 1473 1479 1479 1480 1479 1481 1479 1480 1469 1463 1458 1455 1455 1460 1465 1467 1465 1462 1458
1501 1501 1503 1502 1504 1503 1503 1500 1500 1497 1498 1499 1496 1495 1491 1492 1489 1491 1490 1490 1492 1493 1491 1489 1482 1479 1477 1478 1479 1480 1478 1476 1476 1474 1471 1463 1461 1460 1460 1462 1467 1466 1464 1460 1456
1500 1499 1502 1504 1501 1501 1501 1496 1495 1501 1502 1494 1496 1494 1496 1493 1494 1494 1497 1493 1491 1494 1493 1490 1482 1482 1485 1480 1477 1475 1473 1471 1468 1466 1462 1461 1456 1459 1460 1466 1466 1465 1463 1460 1454
1496 1498 1499 1502 1501 1500 1499 1499 1499 1502 1500 1500 1500 1497 1493 1494 1496 1497 1497 1497 1497 1495 1492 1490 1485 1486 1478 1472 1475 1470 1463 1461 1460 1459 1458 1458 1456 1458 1462 1465 1464 1463 1463 1457 1452